TimeCST,TemperatureF,Dew PointF,Humidity,Sea Level PressureIn,VisibilityMPH,Wind Direction,Wind SpeedMPH,Gust SpeedMPH,PrecipitationIn,Events,Conditions,WindDirDegrees,DateUTC
12:52 AM,12.9,8.1,81,30.12,9.0,SW,3.5,-,N/A,,Clear,220,2013-01-05 06:52:00
1:52 AM,10.9,7.0,84,30.09,8.0,South,6.9,-,N/A,,Clear,180,2013-01-05 07:52:00
3:52 AM,8.1,5.0,87,30.07,7.0,South,10.4,-,N/A,,Clear,190,2013-01-05 09:52:00
4:52 AM,7.0,3.9,87,30.06,6.0,South,10.4,-,N/A,,Clear,190,2013-01-05 10:52:00
6:52 AM,7.0,3.9,87,30.05,5.0,SW,4.6,-,N/A,,Clear,230,2013-01-05 12:52:00
7:52 AM,8.1,3.9,83,30.03,6.0,SSW,9.2,-,N/A,,Clear,200,2013-01-05 13:52:00
9:52 AM,15.1,10.0,80,30.03,9.0,WSW,9.2,-,N/A,,Clear,240,2013-01-05 15:52:00
10:52 AM,17.1,10.9,77,30.00,9.0,SSW,13.8,-,N/A,,Clear,210,2013-01-05 16:52:00
11:52 AM,19.0,12.9,77,29.97,8.0,WSW,15.0,-,N/A,,Clear,240,2013-01-05 17:52:00
12:52 PM,21.0,15.1,78,29.95,8.0,WSW,11.5,-,N/A,,Clear,250,2013-01-05 18:52:00
1:52 PM,24.1,17.1,75,29.93,8.0,WSW,6.9,-,N/A,,Clear,240,2013-01-05 19:52:00
2:52 PM,25.0,17.1,72,29.94,8.0,West,15.0,-,N/A,,Clear,280,2013-01-05 20:52:00
3:52 PM,25.0,17.1,72,29.96,9.0,WNW,15.0,-,N/A,,Clear,290,2013-01-05 21:52:00
4:52 PM,23.0,17.1,78,29.99,10.0,WNW,20.7,-,N/A,,Clear,290,2013-01-05 22:52:00
5:52 PM,21.0,15.1,78,30.01,10.0,WNW,19.6,-,N/A,,Clear,300,2013-01-05 23:52:00
6:52 PM,19.9,14.0,78,30.05,10.0,NW,18.4,-,N/A,,Overcast,310,2013-01-06 00:52:00
7:38 PM,19.4,15.8,86,29.99,10.0,NW,16.1,-,N/A,,Overcast,320,2013-01-06 01:38:00
7:48 PM,19.4,15.8,86,29.99,10.0,NNW,16.1,-,N/A,,Overcast,330,2013-01-06 01:48:00
7:52 PM,19.9,14.0,78,30.07,10.0,NNW,16.1,-,N/A,,Overcast,330,2013-01-06 01:52:00
8:52 PM,16.0,10.9,81,30.09,4.0,NW,21.9,31.1,N/A,,Haze,320,2013-01-06 02:52:00
9:27 PM,14.0,8.6,79,30.02,6.0,NW,17.3,-,N/A,,Haze,320,2013-01-06 03:27:00
9:52 PM,14.0,10.0,84,30.12,6.0,NW,19.6,-,N/A,,Overcast,310,2013-01-06 03:52:00
11:20 PM,14.0,10.4,86,30.07,9.0,NW,16.1,-,N/A,,Scattered Clouds,320,2013-01-06 05:20:00
11:52 PM,12.9,7.0,77,30.14,10.0,NW,16.1,-,N/A,,Clear,320,2013-01-06 05:52:00